www.pogodaiklimat.ru

Погода и климат >> Архив погоды >> Россия >> Астраханская область >> Досанг


ПОГОДА в Досанге

  • Прогноз погоды в Досанге
  • Монитор погоды в Досанге

АРХИВ ПОГОДЫ в Досанге

Время (UTC), дата Ветер
(напр.,м/с)
 
Видим.   Явления Облачность Т
(С)
Тd
(С)
f
(%)
Тe
(С)
Тes
(С)
Комфортность P
(гПа)
Po
(гПа)
Тmin
(С)
Tmax
(С)
R
(мм)
R24
(мм)
S
(см)
18 14.07 Ю 2 10 км 3/0
[Ac cast]
+19.0 +12.5 66 +21 +21 комфорт 1009.0 1011.2
21 14.07 Ю 2 10 км 9/0
[Ci fib]
+17.5 +14.1 80 +18 +18 1008.0 1010.2
00 15.07 ЮЗ 1 10 км ясно +15.9 +13.5 86 +17 +17 1007.8 1010.0
03 15.07 ЮЗ 2 20 км ясно +17.6 +14.4 82 +18 +20 1008.7 1010.8 +15.2
06 15.07 З 1 20 км ясно +25.2 +13.0 47 +27 +41 жарко 1008.7 1010.7
09 15.07 Ю 1 20 км 3/3 600 м
[Cu hum]
+28.5 +10.5 33 +29 +44 жарко 1008.3 1010.4
12 15.07 Ю 2 20 км 6/3 600 м
[Cu hum Ci fib]
+29.9 +8.3 26 +29 +36 жарко 1007.4 1009.5
15 15.07 Ю 2 20 км 3/1 600 м
[Cu hum Ac cast]
+29.5 +9.5 29 +29 +30 жарко 1006.9 1008.9 +30.8
18 15.07 Ю 1 10 км 6/0
[Ac cast]
+23.8 +15.6 60 +27 +27 жарко 1007.8 1009.9
21 15.07 штиль 0 10 км 8/0
[Ac cast]
+21.0 +16.3 75 +24 +24 комфорт 1008.0 1010.1
00 16.07 СВ 2 10 км 9/0
[Ac cast]
+20.9 +15.4 71 +25 +25 комфорт 1007.2 1009.3
03 16.07 штиль 0 20 км 10/6 600 м
[Cb cap Ac cuf]
+21.9 +15.1 65 +25 +26 комфорт 1007.9 1010.0 +20.7
06 16.07 С 4 10 км гроза, ливневой дождь 10/6 600 м
[Cb cap Ac cuf]
+20.6 +16.9 79 +24 +25 комфорт 1008.7 1010.8 +20.1
09 16.07 СВ 3 4000 м ливневой дождь {гроза} 10/8 600 м
[Cb cap Ac cuf]
+19.4 +16.3 82 +22 +22 комфорт 1007.6 1009.7
12 16.07 В 7-11
{13}
10 км гроза, ливневой дождь 10/5 600 м
[Cb cap Ac cuf]
+21.0 +17.3 79 +25 +25 комфорт 1006.5 1008.6
15 16.07 СВ 4
{11}
20 км гроза без осадков {ливн. осадки} 10/4 600 м
[Cb cap Ac cuf]
+20.9 +15.9 73 +24 +25 комфорт 1005.9 1008.0 +23.0 10
18 16.07 СВ 3 10 км в посл. час гроза {ливн. осадки} 9/9 600 м
[Cb cap]
+20.0 +16.4 80 +23 +23 комфорт 1006.3 1008.4
21 16.07 СЗ 2 10 км зарница 9/9 600 м
[Cb cap]
+19.2 +16.6 85 +21 +21 комфорт 1006.8 1008.9
00 17.07 СЗ 2 10 км 4/0
[Ac cuf Ci fib]
+19.0 +15.2 79 +21 +21 комфорт 1006.3 1008.4
03 17.07 З 3 20 км 3/0
[Ac cast Ci fib]
+21.4 +14.8 66 +24 +26 комфорт 1006.6 1008.7 +18.6
06 17.07 З 3 20 км ясно +26.4 +17.3 57 +30 +40 душно 1006.6 1008.6
09 17.07 З 3 20 км 1/0
[Ci fib]
+29.5 +16.6 46 +33 +48 душно 1006.3 1008.3
12 17.07 З 3 20 км 1/0
[Ci sp]
+31.9 +12.3 30 +32 +41 жарко 1005.8 1007.8
15 17.07 З 3 20 км 3/0
[Ac cast Ci fib]
+30.1 +11.6 32 +31 +31 жарко 1005.9 1007.9 +32.3
18 17.07 СЗ 3 10 км ясно +25.3 +14.2 50 +28 +28 жарко 1006.9 1008.9
21 17.07 СЗ 3 10 км ясно +22.2 +14.8 63 +26 +26 душно 1006.9 1009.0
00 18.07 С 1 10 км 3/0
[Ac cuf]
+19.5 +15.0 75 +22 +22 комфорт 1007.2 1009.3
03 18.07 С 1 20 км 3/3 600 м
[Sc diur, vesp]
+21.5 +15.6 69 +25 +26 комфорт 1007.6 1009.7 +18.5
06 18.07 С 3 20 км 8/0
[Ac cast Cc]
+27.8 +13.1 40 +29 +36 жарко 1008.1 1010.1
09 18.07 С 3 20 км 5/0
[Ac cast]
+31.0 +11.6 30 +31 +41 жарко 1007.4 1009.5
12 18.07 С 3 20 км ясно +32.9 +10.2 25 +32 +41 жарко 1006.4 1008.4
15 18.07 С 4 20 км 3/0
[Ac cuf Cc]
+32.6 +5.9 19 +31 +31 жарко 1006.3 1008.3 +33.7
18 18.07 СЗ 3 10 км 4/0
[Ac cast]
+26.7 +9.9 35 +27 +27 жарко 1007.7 1009.7
21 18.07 СЗ 3 10 км 6/0
[Ac trans Ci fib]
+25.1 +10.5 40 +26 +26 жарко 1007.9 1010.0
00 19.07 С 3 10 км 8/0
[Ac cast Ci]
+23.7 +10.4 43 +25 +25 комфорт 1008.5 1010.6
03 19.07 С 2 20 км 10/3 300 м
[Frnb Ac As]
+23.8 +11.8 47 +25 +26 комфорт 1009.5 1011.6 +22.1
06 19.07 С 4 20 км 8/0
[Ac cast Cc]
+28.0 +10.4 33 +28 +33 жарко 1010.7 1012.8
09 19.07 СЗ 4 20 км 1/0
[Ci fib]
+32.4 +8.7 23 +31 +43 жарко 1010.9 1013.0
12 19.07 С 4
{10}
20 км 1/0
[Ci fib]
+34.1 +8.9 21 +33 +40 жарко 1010.3 1012.3
15 19.07 З 4
{10}
20 км 3/1 600 м
[Cu hum Ci fib]
+31.6 +12.3 31 +32 +33 жарко 1010.9 1012.9 +34.2
18 19.07 СЗ 3 10 км 1/1 600 м
[Sc diur, vesp]
+27.1 +14.0 45 +29 +29 жарко 1012.4 1014.4
21 19.07 СЗ 2 10 км 4/0
[Ac cast]
+24.4 +13.6 51 +27 +27 жарко 1013.0 1015.1
00 20.07 С 2 10 км 10/8 600 м
[Sc Ac cast]
+24.2 +14.5 55 +27 +27 жарко 1013.3 1015.4
03 20.07 З 4 20 км 10/4 300 м
[Frnb Ac As]
+22.7 +14.5 60 +26 +26 жарко 1015.9 1018.0 +22.7
06 20.07 СЗ 8-11
{12}
20 км 8/3 600 м
[Cu med, cong Ac cast Cc]
+26.1 +13.1 45 +28 +29 жарко 1016.7 1018.8 +22.3
09 20.07 СЗ 3
{12}
20 км 3/0
[Ac cast]
+31.0 +10.8 29 +31 +43 жарко 1016.5 1018.6
12 20.07 З 3 20 км 3/3 600 м
[Cu med, cong]
+32.1 +11.7 29 +32 +38 жарко 1016.1 1018.1
15 20.07 С 2 20 км 1/1 600 м
[Sc diur, vesp]
+32.1 +9.8 25 +31 +32 жарко 1016.1 1018.1 +32.8
18 20.07 З 2 10 км ясно +25.6 +15.1 52 +28 +28 жарко 1016.9 1019.0
21 20.07 С 3 10 км ясно +23.8 +9.2 39 +25 +25 комфорт 1017.3 1019.4
00 21.07 С 2 10 км ясно +21.0 +8.0 43 +23 +23 комфорт 1017.6 1019.7
03 21.07 СВ 2 20 км ясно +23.9 +8.8 38 +25 +26 комфорт 1018.5 1020.6 +19.7
06 21.07 СВ 4 20 км ясно +30.9 +6.5 22 +29 +37 жарко 1018.1 1020.2
09 21.07 СЗ 1 20 км 3/0
[Cc]
+33.3 +5.7 18 +31 +51 опасность
солнечного
удара
1017.1 1019.2
12 21.07 Ю 2 20 км ясно +34.1 +6.7 18 +32 +42 жарко 1015.6 1017.6
15 21.07 З 1 20 км 10/0
[Ac cast Cc]
+32.9 +7.5 21 +31 +32 жарко 1014.5 1016.5 +34.7

 

Местоположение метеостанции Досанг (Астраханская область, Россия): широта 46.92 долгота 47.93 высота над уровнем моря -19 м.

В архиве по умолчанию представлена погода в Досанге за последнюю неделю. Архивные данные за месяц целиком и за предыдущие месяцы, начиная с января 2011 года, Вы можете получить, выбрав интересующий диапазон дат из раскрывающегося списка и нажав кнопку "Ввод!".


*Определитесь, кто Вы:
робот инопланетянин человек

Внимание! Время в таблицах - всемирное. Для получения местного времени необходимо прибавить поправку, которая равна 4 ч.

Смотрите также архив погоды в соседних городах и на ближайших метеорологических станциях:

Погода в Астрахани (Астраханская область, Россия) (71 км)
Погода в Харабали (Астраханская область, Россия) (74 км)
Погода в Зеленге (Астраханская область, Россия) (98 км)
Погода в Ганюшкино (Атырауская область, Казахстан) (108 км)
Погода в Юсте (Калмыкия, Россия) (124 км)
Погода в Жанауштогане (Атырауская область, Казахстан) (127 км)
Погода в Лимане (Астраханская область, Россия) (136 км)
Погода в Утте (Калмыкия, Россия) (158 км)
Погода в Исатай (Атырауская область, Казахстан) (163 км)
Погода в Верхнем Баскунчаке (Астраханская область, Россия) (170 км)

Пояснения к столбцам:

Ветер - указаны скорость ветра в м/с - средняя за 10 мин, порывы в срок и между сроками (в фигурных скобках) и направление, откуда дует ветер: С - северный, СВ - северо-восточный, В - восточный, ЮВ - юго-восточный, Ю - южный, ЮЗ - юго-западный, З - западный, СЗ - северо-западный.
Видимость - горизонтальная дальность видимости в метрах или километрах. При видимости от 1 до 10 км при отсутствии осадков обычно наблюдается дымка, при ухудшении видимости до 1 км и менее - туман. В сухую погоду видимость может ухудшаться дымом, пылью или мглою.
Явления - указаны атмосферные явления, наблюдавшиеся в срок или в последний час перед сроком; фигурными скобками обозначены явления, наблюдавшиеся между сроками (за 1-3 часа до срока); квадратными скобками обозначены град или гололедные отложения с указанием их диаметра в мм.
Облачность - указаны через наклонную черту общая и нижняя облачность в баллах и высота нижней границы облаков в метрах; квадратными скобками обозначены формы облаков: Ci - перистые, Cs - перисто-слоистые, Cc - перисто-кучевые, Ac - высококучевые, As - высокослоистые, Sc - слоисто-кучевые, Ns - слоисто-дождевые, Cu - кучевые, Cb - кучево-дождевые. Подробнее классификацию облаков см. в Атласе облаков (PDF).
T - Температура воздуха - температура, измеренная на высоте 2 м над землей.
Td - Температура точки росы - температура, при понижении до которой содержащийся в воздухе водяной пар достигнет насыщения.
f - Относительная влажность воздуха - влажноcть воздуха, измеренная на высоте 2 м над землей.
Te - Эффективная температура - температура, которую ощущает одетый по сезону человек в тени. Характеристика душности погоды. При расчете учитывается влияние влажности воздуха и скорости ветра на теплоощущения человека.
Tes - Эффективная температура на солнце - температура, которую ощущает человек, с поправкой на солнечный нагрев. Характеристика знойности погоды. Зависит от высоты солнца над горизонтом, облачности и скорости ветра. Ночью, в пасмурную погоду, а также при ветре 12 м/с и более поправка равна нулю.
P - Атмосферное давление - приведенное к уровню моря атмосферное давление.
Po - Атмосферное давление - измеренное на уровне метеостанции атмосферное давление.
Tmin - Минимальная температура - минимум температуры воздуха на высоте 2 м над землей.
Tmax - Максимальная температура - максимум температуры воздуха на высоте 2 м над землей.
R - Количество осадков - Количество выпавших осадков за период времени, мм. При наведении курсора мыши на число - период времени, за который выпало указанное количество осадков.
R24 - Количество осадков - Количество выпавших осадков за 24 часа, мм.
S - Снежный покров - Высота снежного покрова, см. При наведении курсора мыши на число - состояние снежного покрова и степень покрытия местности в баллах.